Miscellaneous Local Product
Issued by NWS North Platte, NE

Home | Current Version | Previous Version | Text Only | Print | Product List | Glossary On
Versions: 1 2 3 4 5 6 7 8 9 10 11 12 13 14 15 16 17 18 19 20 21 22 23 24 25 26 27 28 29 30 31 32 33 34 35 36 37 38 39 40 41 42 43 44 45 46 47 48 49 50
000
AXUS43 KLBF 171810
MISLBF


WESTERN AND NORTH CENTRAL NEBRASKA HOURLY WEATHER ROUNDUP
NATIONAL WEATHER SERVICE NORTH PLATTE NE
1200 PM CST TUE JAN 17 2017

NOTE: "FAIR" INDICATES FEW OR NO CLOUDS BELOW 12,000 FEET WITH NO
SIGNIFICANT WEATHER AND/OR OBSTRUCTIONS TO VISIBILITY.

NOTE: STATIONS NOT REPORTING VARIABLES SUCH AS SKY/WEATHER OR
PRESSURE ARE PROVIDED BY RAWS AND APRS NETWORKS AND ARE NOT UNDER
NATIONAL WEATHER SERVICE QUALITY CONTROL.

...OBSERVATIONS IN AND NEAR THE EASTERN PANHANDLE OF NEBRASKA...

CITY           SKY/WX    TMP DP  RH WIND       PRES   REMARKS
PINE RIDGE       N/A    N/A N/A N/A MISG      29.98F
CHADRON        CLOUDY    24  14  65 SW5       29.99F WCI  18
ALLIANCE       SUNNY     38  15  39 W15       30.00F WCI  29
SIDNEY         SUNNY     38  23  55 SW16      30.03F WCI  29
CRESCENT LAKE    N/A     36  19  50 SW9         N/A  WCI  29
$$

...OBSERVATIONS IN NORTHERN NEBRASKA AND FAR SOUTHERN SOUTH DAKOTA...

CITY           SKY/WX    TMP DP  RH WIND       PRES   REMARKS
WINNER         FAIR      40  24  53 SW7       30.00F
VALENTINE      SUNNY     41  18  39 SW10      30.00F
THEDFORD       SUNNY     43  23  45 SW9       30.03F
AINSWORTH      SUNNY     41  27  57 W9        30.01F
O`NEILL        SUNNY     33  29  85 SW6       30.04F WCI  28
ORD            SUNNY     33  26  75 CALM      30.05F
BROKEN BOW     SUNNY     34  26  72 W5        30.05F WCI  30
VALENTINE NWR    N/A     38  20  48 W8          N/A  WCI  32
BUTTE            N/A     32  24  71 SW3         N/A
HALSEY           N/A     43  23  44 CALM        N/A
SARGENT          N/A     35  29  79 W3          N/A
CHAMBERS         N/A     35  29  80 S3          N/A
EWING            N/A     31  29  91 CALM        N/A
$$

...OBSERVATIONS IN SOUTHWEST NEBRASKA AND FAR NORTHEAST COLORADO...

CITY           SKY/WX    TMP DP  RH WIND       PRES   REMARKS
WRAY           FAIR      39  23  52 W5        30.09F
HOLYOKE        FAIR      37  27  65 SW5       30.07F WCI  34
IMPERIAL       SUNNY     36  24  62 W3        30.09F
OGALLALA       SUNNY     33  25  71 W6        30.07F WCI  28
NORTH PLATTE   SUNNY     37  26  64 W8        30.07F WCI  31
MCCOOK         SUNNY     36  27  69 W10       30.10F WCI  28
LEXINGTON      SUNNY     36  27  70 W6        30.08F WCI  31
STAPLETON        N/A     38  28  68 CALM        N/A
GOTHENBURG       N/A     36  24  61 W6          N/A  WCI  31
CALLAWAY         N/A     34  32  92 W6          N/A  WCI  29
$$

...OBSERVATIONS IN CENTRAL LINCOLN COUNTY AREA...

CITY           SKY/WX    TMP DP  RH WIND       PRES   REMARKS
N.P. AIRPORT   SUNNY     37  26  64 W8        30.07F WCI  31
N.P. DOWNTOWN    N/A     35  26  70 W3          N/A
N.P. SOUTHEAST   N/A     36  26  65 W3          N/A
N.P. HILLCREST   N/A     34  28  79 W7          N/A  WCI  28
$$

...SOME OBSERVATIONS FROM AROUND THE REGION...

CITY           SKY/WX    TMP DP  RH WIND       PRES   REMARKS
LARAMIE        CLOUDY     4   2  91 NW3       30.08S
CHEYENNE       SUNNY     41  17  38 S9        30.01F
DENVER         MOSUNNY   35  24  64 SW7       30.04F WCI  29
AKRON          SUNNY     36  27  69 W14       30.06F WCI  27
SCOTTSBLUFF    SUNNY     34  18  52 CALM      30.03F
RAPID CITY     SUNNY     26  15  63 SE3       29.91S
BISMARCK       CLOUDY    13   8  81 E5        29.89F WCI   5
PIERRE         CLOUDY    20  12  71 SW7       29.99F WCI  11
SIOUX FALLS    SUNNY     24  18  77 W7        30.03F WCI  16
OMAHA          CLOUDY    29  23  78 NW6       30.09F WCI  23
GRAND ISLAND   SUNNY     31  28  89 W7        30.08F WCI  24
KANSAS CITY    CLOUDY    36  32  85 W9        30.08F WCI  29
WICHITA        MOSUNNY   43  30  60 NW8       30.15F
OKLAHOMA CITY  MOSUNNY   48  34  58 NW8       30.18F
DALLAS         CLOUDY    50  38  63 N10       30.19F
AMARILLO       SUNNY     45  34  65 CALM      30.20F
DODGE CITY     SUNNY     41  32  70 W8        30.14F
HAYS           MOSUNNY   38  30  73 NW7       30.13F WCI  33
GOODLAND       SUNNY     38  29  70 W6        30.10S WCI  33
$$




USA.gov is the U.S. government's official web portal to all federal, state and local government web resources and services.